Regional Weather Roundup
Issued by NWS Mt. Holly, NJ

Home | Current Version | Previous Version | Text Only | Print | Product List | Glossary On
Versions: 1 2 3 4 5 6 7 8 9 10 11 12 13 14 15 16 17 18 19 20 21 22 23 24 25 26 27 28 29 30 31 32 33 34 35 36 37 38 39 40 41 42 43 44 45 46 47 48 49 50
000
ASUS41 KPHI 201010
RWRPHI

REGIONAL WEATHER ROUNDUP
NATIONAL WEATHER SERVICE MOUNT HOLLY NJ
600 AM EDT MON OCT 20 2014

NOTE:  "FAIR" INDICATES FEW OR NO CLOUDS BELOW 12,000 FEET WITH NO
SIGNIFICANT WEATHER AND/OR OBSTRUCTIONS TO VISIBILITY.

 * = STATION DOES NOT REPORT PRECIPITATION (E.G. RAIN, SNOW, ETC.)
        OR FOG.

NJZ015>026-201100-
SOUTHERN NEW JERSEY

CITY           SKY/WX    TMP DP  RH WIND       PRES   REMARKS
POMONA         CLEAR     32  29  88 CALM      30.13S
RIO GRANDE*    CLEAR     36  28  75 CALM      30.14R
MILLVILLE      CLEAR     32  31  96 CALM      30.13R
WRIGHTSTOWN    CLEAR     32  29  88 SE2       30.10R
MOUNT HOLLY    CLEAR     32  30  92 CALM      30.12R
TRENTON        CLEAR     33  30  88 SW5       30.11R WCI  29

$$
NJZ001>014-201100-
NORTHERN NEW JERSEY

CITY           SKY/WX    TMP DP  RH WIND       PRES   REMARKS
SUSSEX         PTCLDY    32  29  88 CALM      30.08S
ANDOVER*         N/A     32  31  96 SW3       30.09R
MORRISTOWN     PTCLDY    34  32  93 CALM      30.10S
NEWARK         MOCLDY    40  30  67 SW5       30.10S
TETERBORO      PTCLDY    39  29  67 CALM      30.09S
CALDWELL       PTCLDY    36  29  75 CALM      30.10S
SOMERVILLE     PTCLDY    31  29  92 CALM      30.10R
ALLAIRE*       PTCLDY    37  27  65 SW6       30.11R WCI  33
TOMS RIVER*    PTCLDY    28  25  86 CALM      30.12S

$$
PAZ043-044-047-054-055-060>062-066>071-201100-
EASTERN PENNSYLVANIA

CITY           SKY/WX    TMP DP  RH WIND       PRES   REMARKS
PHILADELPHIA   PTCLDY    42  32  67 S5        30.13R
NORTH PHILA    CLEAR     36  30  79 CALM      30.13R
BLUE BELL      CLEAR     32  32 100 CALM      30.10S
DOYLESTOWN     CLEAR     33  30  88 CALM      30.10R
QUAKERTOWN*    CLEAR     30  28  93 CALM      30.10R
POTTSTOWN      CLEAR     32  29  88 CALM      30.12R
LANCASTER      CLEAR     35  33  92 CALM      30.09S
COATESVILLE    CLEAR     37  32  81 CALM      30.10S
READING        CLEAR     37  32  82 CALM      30.09S
ALLENTOWN      PTCLDY    34  29  82 CALM      30.09S
MOUNT POCONO   MOCLDY    33  27  78 W3        30.03S
HAZLETON       PTCLDY    30  30 100 CALM      30.07S
WILKES BARRE   MOCLDY    34  29  82 E5        30.05F WCI  30

$$
DEZALL-MDZ008-012-015-019-020-201100-
DELAWARE AND EASTERN MARYLAND

CITY           SKY/WX    TMP DP  RH WIND       PRES   REMARKS
WILMINGTON     CLEAR     37  35  92 CALM      30.13R
DOVER          CLEAR     40  37  89 S1        30.10R
GEORGETOWN     CLEAR     36  32  85 CALM      30.14R
EASTON         CLEAR     39  39 100 CALM      30.16S
PATUXENT       PTCLDY    38  36  92 CALM      30.12R
OCEAN CITY     CLEAR     34  32  92 CALM      30.13R
WALLOPS ISLAND CLEAR     39  36  89 CALM      30.14R
SALISBURY      CLEAR     37  33  85 CALM      30.13R

$$
PAZ001-021-NYZ056-072-MDZ011-DCZ001-201100-
OTHER NEARBY LOCATIONS

CITY           SKY/WX    TMP DP  RH WIND       PRES   REMARKS
HARRISBURG     PTCLDY    37  34  89 NE5       30.08S WCI  33
STATE COLLEGE  CLOUDY    41  37  87 CALM      30.04S
WILLIAMSPORT   PTCLDY    35  30  82 CALM      30.06F
BINGHAMTON     MOCLDY    33  28  81 S3        30.00S
NEW YORK CITY  PTCLDY    42  29  59 CALM      30.12R
BALTIMORE      PTCLDY    36  34  92 CALM      30.10S
WASHINGTON DC  MOCLDY    47  39  74 CALM      30.12S

$$


USA.gov is the U.S. government's official web portal to all federal, state and local government web resources and services.